[[{"header":{"parameterUnit":"m.s-1","parameterCategory":1,"la1":30.2991,"la2":30.254,"lo1":-89.0895,"lo2":-89.0444,"dy":0.0017,"dx":0.0017,"nx":28,"ny":28,"refTime":"2025-01-14T09:00:00:Z","depth":0,"parameterNumber":2,"parameterNumberName":"U-component_of_WINDS"},"data":[0,0,0,0,0,0,0,0,0,0,0,0,0,0,0,0,0,0,0,0,0,0,0,0,0,0,0,0,0,0,0,0,0,0,0,0,0,0,0,0,0,0,0,0,0,0,0,0,0,0,0,0,0,0,0,0,0,0,-3.2673,-3.2674,0,-3.2733,-3.2734,-3.2735,-3.2608,-3.2604,-3.26,-3.2596,-3.2663,-3.2668,-3.2674,0,0,0,0,0,0,0,0,0,0,0,0,0,-3.2453,-3.2458,-3.2673,-3.2674,-3.2675,-3.2733,-3.2734,-3.2735,-3.2609,-3.2604,-3.2599,-3.2594,-3.2661,-3.2668,-3.2674,0,0,0,0,0,0,0,0,0,0,0,0,0,-3.2535,-3.2459,-3.2673,-3.2619,-3.2614,-3.2733,-3.2734,-3.2735,-3.261,-3.2603,-3.2597,-3.2591,-3.2659,-3.2667,-3.2675,-3.2851,0,0,-3.2701,-3.2705,0,0,0,0,0,0,0,0,-3.253,-3.2543,-3.2626,-3.2623,-3.2618,-3.2657,-3.2681,-3.2774,-3.2611,-3.2612,-3.2596,-3.2588,-3.2666,-3.2674,-3.2699,-3.2855,-3.2857,-3.2702,-3.2707,-3.2711,-3.2713,0,0,0,0,0,0,0,-3.2525,-3.254,-3.2697,-3.2627,-3.2622,-3.2592,-3.2597,-3.2698,-3.2673,-3.2611,-3.2602,-3.2611,-3.2663,-3.2691,-3.2699,-3.2858,-3.2702,-3.2709,-3.2714,-3.2718,-3.3162,-3.3168,0,0,0,0,0,0,-3.2525,-3.2536,-3.2695,-3.2699,-3.2558,-3.2601,-3.2607,-3.2651,-3.2672,-3.2669,-3.2616,-3.2604,-3.2679,-3.269,-3.2701,-3.2909,-3.2711,-3.2718,-3.2723,-3.3155,-3.3163,-3.3171,0,0,0,0,0,0,-3.2521,-3.2541,-3.2693,-3.2615,-3.2632,-3.2612,-3.2662,-3.2655,-3.2683,-3.2675,-3.267,-3.2649,-3.2675,-3.2689,-3.2815,-3.291,-3.2722,-3.273,-3.3147,-3.3158,-3.3167,-3.3327,0,0,0,0,0,0,-3.2515,-3.254,-3.2606,-3.2617,-3.2636,-3.2805,-3.2668,-3.2661,-3.2697,-3.2683,-3.2705,-3.2703,-3.2671,-3.2803,-3.2823,-3.2918,-3.2737,-3.3139,-3.3152,-3.3164,-3.3314,-3.3342,-3.3366,0,0,0,0,0,-3.2508,-3.265,-3.261,-3.263,-3.2718,-3.281,-3.2822,-3.2781,-3.2705,-3.2772,-3.2767,-3.2702,-3.2895,-3.2817,-3.2838,-3.2938,-3.3133,-3.3148,-3.3163,-3.3302,-3.3336,-3.3365,0,0,0,0,0,0,-3.2653,-3.265,-3.2606,-3.2756,-3.2784,-3.2789,-3.2872,-3.2819,-3.2871,-3.2855,-3.2804,-3.281,-3.2946,-3.2954,-3.2866,-3.3109,-3.3001,-3.3022,-3.31,-3.3132,-3.3158,-3.3154,-3.2744,0,0,0,0,0,-3.2702,-3.2775,-3.2769,-3.2902,-3.2918,-3.2893,-3.2932,-3.2897,-3.2926,-3.2937,-3.2941,-3.2972,-3.304,-3.3086,-3.3148,-3.3313,-3.3317,-3.3392,-3.3418,-3.3439,-3.3458,-3.3547,-3.3581,-3.322,-3.322,-3.322,0,0,-3.2805,-3.2812,-3.2862,-3.2932,-3.2949,-3.3028,-3.2904,-3.2993,-3.3051,-3.2951,-3.307,-3.3074,-3.3105,-3.3251,-3.3316,-3.3262,-3.3558,-3.3459,-3.3476,-3.3483,-3.3566,-3.36,-3.3631,-3.3231,-3.3229,-3.3227,0,0,-3.3033,-3.3045,-3.3157,-3.3177,-3.3204,-3.3186,-3.3213,-3.3226,-3.3224,-3.3341,-3.3268,-3.3337,-3.3455,-3.348,-3.3508,-3.3744,-3.3687,-3.3765,-3.3903,-3.399,-3.4018,-3.4043,-3.4129,-3.416,-3.3784,-3.3784,-3.3784,0,-3.3158,-3.3272,-3.3222,-3.3315,-3.3349,-3.3259,-3.3373,-3.3395,-3.3443,-3.3468,-3.3406,-3.3551,-3.3566,-3.3717,-3.3774,-3.3799,-3.383,-3.3764,-3.4018,-3.4042,-3.4065,-3.4146,-3.4178,-3.3793,-3.3792,-3.3791,-3.3791,0,-3.3425,-3.3505,-3.3592,-3.3639,-3.3681,-3.3785,-3.3751,-3.3801,-3.3762,-3.3751,-3.3872,-3.3886,-3.3949,-3.3982,-3.3946,-3.4128,-3.4094,-3.4026,-3.3917,-3.411,-3.4185,-3.4216,-3.3807,-3.3804,-3.3801,-3.3799,0,0,-3.3749,-3.3764,-3.3798,-3.3817,-3.384,-3.3902,-3.4001,-3.4061,-3.4105,-3.414,-3.4223,-3.4323,-3.426,-3.4292,-3.4258,-3.4334,-3.4521,-3.4256,-3.4256,-3.4307,-3.4724,-3.4778,-3.4814,-3.4482,-3.4487,-3.4492,-3.4722,0,-3.3976,-3.4145,-3.4103,-3.4271,-3.4346,-3.426,-3.4347,-3.4371,-3.4363,-3.4425,-3.4416,-3.4489,-3.4399,-3.4418,-3.4489,-3.4484,-3.4605,-3.4466,-3.4561,-3.4565,-3.4559,-3.4853,-3.491,-3.5127,-3.4751,-3.4756,-3.476,0,-3.4265,-3.4309,-3.4485,-3.4495,-3.4524,-3.4603,-3.4654,-3.4714,-3.474,-3.4728,-3.4763,-3.4714,-3.4813,-3.4701,-3.4838,-3.4744,-3.478,-3.4783,-3.479,-3.48,-3.4676,-3.4873,-3.5195,-3.5229,-3.4806,-3.4802,-3.4799,0,-3.4486,-3.4589,-3.4708,-3.4727,-3.4741,-3.4799,-3.4808,-3.4826,-3.4865,-3.491,-3.4934,-3.4991,-3.5023,-3.5068,-3.5035,-3.4956,-3.5178,-3.5063,-3.5173,-3.5175,-3.5227,-3.5225,-3.5561,-3.5246,-3.5245,-3.5245,-3.5244,0,-3.4746,-3.4857,-3.4807,-3.4881,-3.5003,-3.4952,-3.5075,-3.5074,-3.5092,-3.5165,-3.5094,-3.5164,-3.5115,-3.5182,-3.5157,-3.5275,-3.5289,-3.5284,-3.5276,-3.5292,-3.5293,-3.5317,-3.5302,-3.5253,-3.5251,-3.525,-3.5248,0,-3.5015,-3.4986,-3.511,-3.5112,-3.5115,-3.5206,-3.5208,-3.5277,-3.5261,-3.5354,-3.5373,-3.5351,-3.5425,-3.5396,-3.5475,-3.5458,-3.561,-3.5581,-3.5601,-3.5595,-3.5707,-3.5698,-3.6073,-3.6121,-3.5773,-3.5776,-3.5779,0,-3.5184,-3.5268,-3.5278,-3.5321,-3.5334,-3.5404,-3.5442,-3.5395,-3.5438,-3.5472,-3.5537,-3.5604,-3.5656,-3.5779,-3.5771,-3.5831,-3.5805,-3.5932,-3.5814,-3.5827,-3.5809,-3.5806,-3.5815,-3.5957,-3.5961,-3.5964,-3.5967,0,-3.5488,-3.5469,-3.5526,-3.5578,-3.5625,-3.5664,-3.5697,-3.5736,-3.569,-3.5743,-3.5816,-3.5856,-3.5936,-3.6004,-3.6057,-3.6068,-3.6012,-3.6003,-3.6033,-3.6051,-3.606,-3.6058,-3.5668,-3.5996,-3.5993,-3.5991,-3.5989,-3.5988,-3.5714,-3.5784,-3.5802,-3.5868,-3.5887,-3.5919,-3.5984,-3.5976,-3.6036,-3.6096,-3.6064,-3.6151,-3.6173,-3.6239,-3.6257,-3.6324,-3.6275,-3.6317,-3.6328,-3.634,-3.6355,-3.6046,-3.6334,-3.6333,-3.6332,-3.6331,-3.6331,0,-3.6016,-3.6022,-3.6083,-3.613,-3.6183,-3.6121,-3.6154,-3.6202,-3.6278,-3.6303,-3.6355,-3.644,-3.6505,-3.6501,-3.6562,-3.6617,-3.6593,-3.6635,-3.6632,-3.6636,-3.6395,-3.6365,-3.6654,-3.6654,-3.6654,-3.6654,-3.6654,-3.6654,-3.6179,-3.6295,-3.6278,-3.6403,-3.6408,-3.6491,-3.6516,-3.6545,-3.6565,-3.6662,-3.6716,-3.6711,-3.6725,-3.6786,-3.6844,-3.6841,-3.6868,-3.6921,-3.6909,-3.6685,-3.6653,-3.6622,-3.6594,-3.6926,-3.6927,-3.7144,-3.7146,-3.7148]},{"header":{"parameterUnit":"m.s-1","parameterCategory":1,"la1":30.2991,"la2":30.254,"lo1":-89.0895,"lo2":-89.0444,"dy":0.0017,"dx":0.0017,"nx":28,"ny":28,"refTime":"2025-01-14T09:00:00:Z","depth":0,"parameterNumber":3,"parameterNumberName":"V-component_of_WINDS"},"data":[0,0,0,0,0,0,0,0,0,0,0,0,0,0,0,0,0,0,0,0,0,0,0,0,0,0,0,0,0,0,0,0,0,0,0,0,0,0,0,0,0,0,0,0,0,0,0,0,0,0,0,0,0,0,0,0,0,0,-2.5713,-2.5713,0,-2.5734,-2.5735,-2.5735,-2.5706,-2.5705,-2.5704,-2.5703,-2.5724,-2.5726,-2.5727,0,0,0,0,0,0,0,0,0,0,0,0,0,-2.5646,-2.5647,-2.5713,-2.5713,-2.5714,-2.5734,-2.5735,-2.5735,-2.5706,-2.5705,-2.5704,-2.5703,-2.5724,-2.5726,-2.5728,0,0,0,0,0,0,0,0,0,0,0,0,0,-2.5672,-2.5648,-2.5713,-2.5702,-2.5701,-2.5734,-2.5735,-2.5735,-2.5707,-2.5705,-2.5703,-2.5702,-2.5723,-2.5726,-2.5728,-2.5773,0,0,-2.5735,-2.5736,0,0,0,0,0,0,0,0,-2.5671,-2.5674,-2.5703,-2.5703,-2.5702,-2.5716,-2.5719,-2.5748,-2.5707,-2.5704,-2.5703,-2.5701,-2.5723,-2.5725,-2.5732,-2.5774,-2.5775,-2.5735,-2.5736,-2.5737,-2.5738,0,0,0,0,0,0,0,-2.5669,-2.5673,-2.5721,-2.5704,-2.5703,-2.5695,-2.5697,-2.5724,-2.5722,-2.5705,-2.5703,-2.5705,-2.5722,-2.573,-2.5733,-2.5775,-2.5735,-2.5737,-2.5738,-2.5739,-2.5853,-2.5854,0,0,0,0,0,0,-2.5668,-2.5672,-2.5721,-2.5722,-2.5682,-2.5698,-2.57,-2.5713,-2.5722,-2.5722,-2.5707,-2.5704,-2.5727,-2.573,-2.5733,-2.5785,-2.5737,-2.574,-2.5741,-2.5851,-2.5853,-2.5855,0,0,0,0,0,0,-2.5667,-2.5673,-2.572,-2.5697,-2.5702,-2.57,-2.5715,-2.5714,-2.5722,-2.5723,-2.5723,-2.5716,-2.5726,-2.573,-2.5763,-2.5786,-2.5741,-2.5743,-2.5849,-2.5852,-2.5854,-2.5891,0,0,0,0,0,0,-2.5665,-2.5673,-2.569,-2.5697,-2.5703,-2.575,-2.5717,-2.5716,-2.5726,-2.5723,-2.5731,-2.5731,-2.5725,-2.576,-2.5765,-2.5788,-2.5744,-2.5847,-2.585,-2.5853,-2.5887,-2.5894,-2.59,0,0,0,0,0,-2.5663,-2.57,-2.5691,-2.5698,-2.5725,-2.5751,-2.5755,-2.5747,-2.5728,-2.5746,-2.5746,-2.5731,-2.5782,-2.5763,-2.5769,-2.5793,-2.5845,-2.5849,-2.5853,-2.5885,-2.5893,-2.59,0,0,0,0,0,0,-2.5697,-2.5701,-2.5691,-2.5732,-2.5741,-2.5746,-2.5768,-2.5756,-2.5771,-2.5767,-2.5757,-2.5759,-2.5793,-2.5797,-2.5775,-2.5836,-2.5811,-2.5816,-2.5833,-2.5841,-2.5847,-2.5845,-2.5746,0,0,0,0,0,-2.5709,-2.573,-2.5732,-2.5768,-2.5773,-2.577,-2.5781,-2.5774,-2.5783,-2.5787,-2.579,-2.5799,-2.5817,-2.5829,-2.5846,-2.5888,-2.5888,-2.5907,-2.5913,-2.5918,-2.5923,-2.5943,-2.5951,-2.5867,-2.5867,-2.5867,0,0,-2.5734,-2.5739,-2.5753,-2.5775,-2.5781,-2.5802,-2.5773,-2.5797,-2.5812,-2.579,-2.5821,-2.5823,-2.5833,-2.587,-2.5886,-2.5874,-2.5946,-2.5923,-2.5927,-2.5929,-2.5948,-2.5956,-2.5963,-2.5869,-2.5869,-2.5868,0,0,-2.5791,-2.5797,-2.5827,-2.5834,-2.5843,-2.5841,-2.5848,-2.5854,-2.5855,-2.5885,-2.5869,-2.5886,-2.5918,-2.5925,-2.5933,-2.599,-2.5977,-2.5996,-2.6028,-2.6049,-2.6055,-2.6061,-2.608,-2.6088,-2.6,-2.6001,-2.6001,0,-2.5821,-2.5853,-2.5844,-2.5868,-2.5877,-2.5858,-2.5887,-2.5894,-2.5909,-2.5916,-2.5901,-2.5939,-2.5945,-2.5982,-2.5996,-2.6003,-2.601,-2.5995,-2.6055,-2.6061,-2.6066,-2.6084,-2.6092,-2.6003,-2.6003,-2.6002,-2.6002,0,-2.5889,-2.591,-2.5933,-2.5947,-2.5959,-2.5986,-2.598,-2.5993,-2.5985,-2.5984,-2.6014,-2.6019,-2.6036,-2.6045,-2.6037,-2.6081,-2.6072,-2.6057,-2.6031,-2.6077,-2.6093,-2.6101,-2.6006,-2.6005,-2.6004,-2.6004,0,0,-2.5968,-2.5976,-2.5984,-2.5989,-2.5998,-2.6015,-2.604,-2.6056,-2.6067,-2.6077,-2.6098,-2.6124,-2.6109,-2.6118,-2.6111,-2.6129,-2.6172,-2.6111,-2.6111,-2.6121,-2.6219,-2.623,-2.6239,-2.6163,-2.6165,-2.6166,-2.6218,0,-2.6024,-2.6067,-2.6059,-2.6102,-2.6121,-2.6102,-2.6123,-2.6131,-2.613,-2.6145,-2.6144,-2.6163,-2.6142,-2.6147,-2.6164,-2.6163,-2.6192,-2.616,-2.6181,-2.6182,-2.6179,-2.6248,-2.626,-2.6309,-2.6225,-2.6226,-2.6227,0,-2.6095,-2.6107,-2.6151,-2.6155,-2.6163,-2.6183,-2.6196,-2.6212,-2.6219,-2.6217,-2.6226,-2.6215,-2.6239,-2.6213,-2.6245,-2.6224,-2.6232,-2.6233,-2.6234,-2.6236,-2.6207,-2.625,-2.6324,-2.6331,-2.6237,-2.6236,-2.6235,0,-2.6147,-2.6174,-2.6204,-2.6209,-2.6215,-2.6229,-2.6232,-2.6238,-2.6247,-2.6259,-2.6265,-2.6279,-2.6287,-2.6298,-2.629,-2.6272,-2.6324,-2.6297,-2.6322,-2.6322,-2.6333,-2.6332,-2.6409,-2.634,-2.634,-2.634,-2.634,0,-2.6209,-2.6237,-2.6227,-2.6245,-2.6275,-2.6265,-2.6294,-2.6295,-2.63,-2.6317,-2.6302,-2.6318,-2.6308,-2.6324,-2.6318,-2.6345,-2.6349,-2.6347,-2.6345,-2.6348,-2.6348,-2.6353,-2.6349,-2.6342,-2.6341,-2.6341,-2.6341,0,-2.6272,-2.6267,-2.6298,-2.63,-2.6301,-2.6323,-2.6325,-2.6341,-2.6338,-2.636,-2.6365,-2.6361,-2.6378,-2.6372,-2.6391,-2.6387,-2.6421,-2.6415,-2.6418,-2.6416,-2.644,-2.6438,-2.6523,-2.6533,-2.6458,-2.6458,-2.6459,0,-2.6312,-2.6333,-2.6337,-2.6347,-2.6351,-2.6368,-2.6377,-2.6368,-2.6378,-2.6387,-2.6402,-2.6418,-2.643,-2.6458,-2.6456,-2.647,-2.6464,-2.6493,-2.6466,-2.6468,-2.6463,-2.6462,-2.6463,-2.6498,-2.6499,-2.6499,-2.65,0,-2.6383,-2.6379,-2.6393,-2.6406,-2.6418,-2.6427,-2.6436,-2.6445,-2.6435,-2.6448,-2.6465,-2.6474,-2.6493,-2.6508,-2.652,-2.6523,-2.6509,-2.6508,-2.6514,-2.6517,-2.6518,-2.6517,-2.6432,-2.6506,-2.6506,-2.6505,-2.6505,-2.6505,-2.6435,-2.6452,-2.6457,-2.6473,-2.6477,-2.6485,-2.65,-2.6499,-2.6513,-2.6527,-2.652,-2.654,-2.6545,-2.656,-2.6564,-2.6579,-2.6567,-2.6577,-2.6579,-2.6581,-2.6584,-2.6516,-2.6581,-2.6581,-2.6581,-2.658,-2.658,0,-2.6504,-2.6506,-2.6521,-2.6532,-2.6544,-2.6531,-2.6539,-2.655,-2.6567,-2.6573,-2.6585,-2.6604,-2.6618,-2.6617,-2.663,-2.6642,-2.6637,-2.6646,-2.6645,-2.6645,-2.6594,-2.6586,-2.665,-2.665,-2.665,-2.665,-2.665,-2.665,-2.6542,-2.6569,-2.6565,-2.6593,-2.6595,-2.6614,-2.6619,-2.6626,-2.663,-2.6652,-2.6664,-2.6663,-2.6666,-2.6679,-2.6691,-2.6691,-2.6696,-2.6707,-2.6704,-2.6656,-2.6649,-2.6642,-2.6635,-2.6709,-2.6709,-2.6754,-2.6755,-2.6755]}]]